Tracking 29892 objects as of 21-Nov-2024
HD Live streaming from Space Station
objects crossing your sky now

FENGYUN 1C DEB

Track FENGYUN 1C DEB now!
10-day predictions


NORAD ID: 30454
Int'l Code: 1999-025AFR
Perigee: 735.9 km
Apogee: 1,005.7 km
Inclination: 98.1 °
Period: 102.2 minutes
Semi major axis: 7241 km
RCS: 0.027 m2 (small)
Launch date: May 10, 1999
Source: People's Republic of China (PRC)
Launch site: Taiyaun Space Center, China (TSC)

Note: This is SATELLITE DEBRIS
Your satellite tracking list
Your tracking list is empty




NASA's NSSDC Master Catalog

Two Line Element Set (TLE):
1 30454U 99025AFR 24324.98874875  .00008574  00000-0  42546-2 0  9999
2 30454  98.1157 325.1448 0186303 236.5545 149.0123 14.08741707904964
Source of the keplerian elements: AFSPC